Date String (YYYY-MM-DD hh:mm:ss) UTC,Instrument flags,Ambient pressure (hPa),Sample flow (lpm),Bypass flow (lpm),Sample temperature (°C),Ambient temperature (°C),ASC tube jacket temperature (°C),LED temperature (°C),Box temperature (°C),Sample RH (%),Span deviation,Mass concentration (μg/m³),Mass concentration (μg/m³),Mass concentration (μg/m³)
DateTimeUTC,F1_M11,P_M11,Q1_M11,Q2_M11,T1_M11,T2_M11,T3_M11,T4_M11,T5_M11,U1_M11,ZSPAN_M11,X0_M11,X2_M11,X1_M11
2021-10-02 23:00:00,,0831.1,5.02,0.00,29.8,29.2,00.0,38.7,31.7,11.4,0000.0,0010.27,0004.29,0003.73
2021-10-02 23:01:00,,0831.0,4.99,0.00,29.9,29.2,00.0,38.7,31.8,11.5,0000.0,0010.42,0004.31,0003.73
2021-10-02 23:02:00,,0831.0,5.00,0.00,29.9,28.8,00.0,38.8,31.7,11.8,0000.0,0010.42,0004.31,0003.72
2021-10-02 23:03:00,,0831.0,5.01,0.00,29.8,26.6,00.0,38.8,31.1,11.8,0000.0,0010.57,0004.32,0003.74
2021-10-02 23:04:00,,0831.0,5.00,0.00,29.6,25.5,00.0,38.7,30.8,11.7,0000.0,0011.21,0004.32,0003.74
2021-10-02 23:05:00,,0831.0,5.00,0.00,29.5,25.9,00.0,38.7,30.8,12.0,0000.0,0010.54,0004.34,0003.74
2021-10-02 23:06:00,,0831.0,5.00,0.00,29.4,26.3,00.0,38.6,30.9,11.8,0000.0,0009.88,0004.38,0003.75
2021-10-02 23:07:00,,0831.0,4.99,0.00,29.4,26.8,00.0,38.6,31.0,12.1,0000.0,0009.97,0004.43,0003.77
2021-10-02 23:08:00,,0831.1,5.00,0.00,29.4,27.3,00.0,38.6,31.1,12.4,0000.0,0009.95,0004.46,0003.78
2021-10-02 23:09:00,,0831.0,5.00,0.00,29.4,27.6,00.0,38.6,31.2,12.2,0000.0,0009.57,0004.44,0003.78
2021-10-02 23:10:00,,0831.0,5.00,0.00,29.5,27.9,00.0,38.6,31.2,12.0,0000.0,0010.45,0004.41,0003.77
2021-10-02 23:11:00,,0831.0,5.00,0.00,29.5,28.1,00.0,38.6,31.3,12.0,0000.0,0011.00,0004.40,0003.77
2021-10-02 23:12:00,,0831.0,5.00,0.00,29.5,28.3,00.0,38.6,31.4,11.7,0000.0,0011.22,0004.36,0003.77
2021-10-02 23:13:00,,0831.0,5.00,0.00,29.6,28.5,00.0,38.6,31.4,12.6,0000.0,0011.06,0004.37,0003.77
2021-10-02 23:14:00,,0831.0,5.00,0.00,29.6,28.7,00.0,38.6,31.5,12.7,0000.0,0010.76,0004.34,0003.77
2021-10-02 23:15:00,,0831.0,5.00,0.00,29.7,28.8,00.0,38.6,31.5,12.4,0000.0,0010.30,0004.34,0003.77
2021-10-02 23:16:00,,0831.0,4.99,0.00,29.7,28.9,00.0,38.6,31.6,12.5,0000.0,0010.34,0004.31,0003.77
2021-10-02 23:17:00,,0831.0,5.01,0.00,29.7,29.0,00.0,38.7,31.6,12.3,0000.0,0010.90,0004.29,0003.76
2021-10-02 23:18:00,,0831.0,5.00,0.00,29.8,29.0,00.0,38.7,31.7,12.3,0000.0,0010.83,0004.28,0003.75
2021-10-02 23:19:00,,0831.0,5.01,0.00,29.8,29.1,00.0,38.7,31.7,12.1,0000.0,0010.87,0004.27,0003.73
2021-10-02 23:20:00,,0831.1,5.00,0.00,29.9,29.2,00.0,38.7,31.8,12.7,0000.0,0011.42,0004.28,0003.73
2021-10-02 23:21:00,,0831.1,5.01,0.00,29.9,29.0,00.0,38.8,31.8,12.6,0000.0,0010.77,0004.29,0003.72
2021-10-02 23:22:00,,0831.0,5.00,0.00,29.8,27.2,00.0,38.8,31.3,13.2,0000.0,0009.99,0004.29,0003.72
2021-10-02 23:23:00,,0831.0,4.99,0.00,29.7,26.5,00.0,38.8,31.1,13.4,0000.0,0009.44,0004.29,0003.71
2021-10-02 23:24:00,,0831.0,5.00,0.00,29.6,26.7,00.0,38.8,31.2,13.8,0000.0,0009.60,0004.29,0003.71
2021-10-02 23:25:00,,0831.0,5.01,0.00,29.6,27.1,00.0,38.7,31.2,12.9,0000.0,0010.58,0004.32,0003.70
2021-10-02 23:26:00,,0831.0,5.00,0.00,29.6,27.5,00.0,38.7,31.3,13.1,0000.0,0010.28,0004.29,0003.68
2021-10-02 23:27:00,,0831.0,5.01,0.00,29.6,27.8,00.0,38.7,31.3,13.0,0000.0,0010.47,0004.27,0003.68
2021-10-02 23:28:00,,0831.0,4.99,0.00,29.6,28.1,00.0,38.7,31.4,13.3,0000.0,0010.04,0004.25,0003.68
2021-10-02 23:29:00,,0831.1,5.00,0.00,29.7,28.3,00.0,38.7,31.5,12.7,0000.0,0010.93,0004.24,0003.67
2021-10-02 23:30:00,,0831.1,4.99,0.00,29.7,28.5,00.0,38.7,31.5,12.6,0000.0,0011.23,0004.23,0003.67
2021-10-02 23:31:00,,0831.1,4.99,0.00,29.7,28.7,00.0,38.7,31.6,12.7,0000.0,0010.73,0004.21,0003.66
2021-10-02 23:32:00,,0831.0,5.01,0.00,29.8,28.8,00.0,38.7,31.6,12.4,0000.0,0010.57,0004.21,0003.67
2021-10-02 23:33:00,,0831.0,4.99,0.00,29.8,28.9,00.0,38.7,31.7,13.0,0000.0,0010.65,0004.21,0003.67
2021-10-02 23:34:00,,0831.0,4.99,0.00,29.8,29.0,00.0,38.8,31.7,12.7,0000.0,0010.68,0004.23,0003.68
2021-10-02 23:35:00,,0831.0,5.00,0.00,29.9,29.1,00.0,38.8,31.8,12.4,0000.0,0010.66,0004.23,0003.68
2021-10-02 23:36:00,,0831.0,5.01,0.00,29.9,29.2,00.0,38.8,31.8,12.4,0000.0,0010.11,0004.22,0003.69
2021-10-02 23:37:00,,0831.0,5.00,0.00,30.0,29.0,00.0,38.8,31.8,12.5,0000.0,0010.55,0004.25,0003.69
2021-10-02 23:38:00,,0831.0,5.00,0.00,29.9,27.3,00.0,38.8,31.3,12.5,0000.0,0010.70,0004.26,0003.69
2021-10-02 23:39:00,,0831.0,5.00,0.00,29.7,26.5,00.0,38.8,31.1,13.1,0000.0,0010.47,0004.30,0003.71
2021-10-02 23:40:00,,0831.0,5.00,0.00,29.7,26.8,00.0,38.8,31.1,13.0,0000.0,0009.69,0004.32,0003.74
2021-10-02 23:41:00,,0831.0,4.99,0.00,29.6,27.2,00.0,38.8,31.2,12.9,0000.0,0009.39,0004.31,0003.75
2021-10-02 23:42:00,,0831.0,5.00,0.00,29.6,27.6,00.0,38.7,31.3,13.0,0000.0,0009.46,0004.33,0003.75
2021-10-02 23:43:00,,0831.1,4.99,0.00,29.6,27.9,00.0,38.7,31.4,12.8,0000.0,0010.06,0004.37,0003.76
2021-10-02 23:44:00,,0831.0,5.00,0.00,29.7,28.1,00.0,38.7,31.4,12.8,0000.0,0010.15,0004.40,0003.77
2021-10-02 23:45:00,,0831.0,5.00,0.00,29.7,28.4,00.0,38.7,31.5,12.7,0000.0,0010.47,0004.46,0003.78
2021-10-02 23:46:00,,0831.0,4.99,0.00,29.7,28.5,00.0,38.7,31.5,12.6,0000.0,0011.33,0004.41,0003.76
2021-10-02 23:47:00,,0831.0,5.01,0.00,29.7,28.7,00.0,38.7,31.6,12.3,0000.0,0011.03,0004.38,0003.76
2021-10-02 23:48:00,,0831.0,4.99,0.00,29.8,28.8,00.0,38.8,31.6,12.2,0000.0,0010.53,0004.35,0003.76
2021-10-02 23:49:00,,0831.0,4.99,0.00,29.8,28.9,00.0,38.8,31.7,12.0,0000.0,0010.42,0004.35,0003.76
2021-10-02 23:50:00,,0831.0,5.00,0.00,29.9,29.0,00.0,38.8,31.7,12.3,0000.0,0010.71,0004.35,0003.74
2021-10-02 23:51:00,,0831.0,5.00,0.00,29.9,29.1,00.0,38.8,31.8,12.3,0000.0,0012.47,0004.35,0003.72
2021-10-02 23:52:00,,0831.0,4.99,0.00,29.9,28.9,00.0,38.8,31.7,12.2,0000.0,0012.69,0004.37,0003.70
2021-10-02 23:53:00,,0831.0,5.01,0.00,29.8,27.1,00.0,38.8,31.3,12.4,0000.0,0013.53,0004.39,0003.70
2021-10-02 23:54:00,,0831.0,5.00,0.00,29.7,26.5,00.0,38.8,31.1,12.5,0000.0,0013.44,0004.36,0003.68
2021-10-02 23:55:00,,0831.0,5.00,0.00,29.7,26.8,00.0,38.8,31.2,12.4,0000.0,0014.86,0004.30,0003.67
2021-10-02 23:56:00,,0831.0,5.00,0.00,29.6,27.2,00.0,38.8,31.3,12.2,0000.0,0014.54,0004.21,0003.64
2021-10-02 23:57:00,,0831.1,5.01,0.00,29.6,27.5,00.0,38.7,31.3,12.4,0000.0,0013.57,0004.23,0003.65
2021-10-02 23:58:00,,0831.1,4.99,0.00,29.6,27.9,00.0,38.7,31.3,12.2,0000.0,0013.40,0004.24,0003.66
2021-10-02 23:59:00,,0831.1,5.02,0.00,29.7,28.1,00.0,38.7,31.4,12.2,0000.0,0013.23,0004.23,0003.66
